Weather History for Pellston, MI

Change the Weather History Date:

Friday, April 26, 2013

  Actual Average Record
Temperature  
Mean Temperature 42 °F -  
Max Temperature 63 °F 58 °F 86 °F (1990)
Min Temperature 21 °F 32 °F 15 °F (1958)
Degree Days  
Heating Degree Days 23    
Moisture  
Dew Point 29 °F    
Average Humidity 65    
Maximum Humidity 89    
Minimum Humidity 29    
Precipitation  
Precipitation 0.01 in - - ()
Sea Level Pressure  
Sea Level Pressure 30.27 in    
Wind  
Wind Speed 3 mph (SE)    
Max Wind Speed 15 mph    
Max Gust Speed 22 mph    
Visibility 10 miles    
Events Rain    
Averages and records for this station are not official NWS values.
T = Trace of Precipitation, MM = Missing Value Source: NWS Daily Summary

Daily Weather History Graph

Daily Weather History Graph

Search for Another Location

Airport:

Trip Planner

Search our weather history database for the weather conditions in past years. The results will help you decide how hot, cold, wet, or windy it might be!

Date:

Astronomy

Apr. 26, 2013 Rise Set
Actual Time 6:34 AM EDT 8:40 PM EDT
Civil Twilight 6:02 AM EDT 9:12 PM EDT
Nautical Twilight 5:22 AM EDT 9:52 PM EDT
Astronomical Twilight 4:38 AM EDT 10:36 PM EDT
Moon 10:05 PM EDT (4/26) 6:58 AM EDT (4/26)
Length of Visible Light 15h 10m
Length of Day
14h 05m
Full, 99% of the Moon is Illuminated
Apr 26
Full
May 2
Last Quarter
May 9
New
May 18
First Quarter
May 25
Full

Hourly Weather History & Observations

Time (EDT) Temp. Windchill Dew Point Humidity Pressure Visibility Wind Dir Wind Speed Gust Speed Precip Events Conditions
12:54 AM 27.0 °F - 23.0 °F 85% 30.31 in 10.0 mi Calm Calm - N/A   Clear
1:54 AM 26.1 °F - 21.9 °F 84% 30.32 in 10.0 mi Calm Calm - N/A   Clear
2:54 AM 25.0 °F - 21.9 °F 88% 30.31 in 10.0 mi Calm Calm - N/A   Clear
3:54 AM 25.0 °F - 19.9 °F 81% 30.32 in 10.0 mi Calm Calm - N/A   Clear
4:54 AM 23.0 °F - 19.9 °F 88% 30.32 in 10.0 mi Calm Calm - N/A   Clear
5:54 AM 21.9 °F - 19.0 °F 89% 30.32 in 10.0 mi Calm Calm - N/A   Clear
6:54 AM 25.0 °F 20.7 °F 21.0 °F 85% 30.33 in 10.0 mi SE 3.5 mph - N/A   Clear
7:54 AM 33.1 °F - 27.0 °F 78% 30.34 in 10.0 mi Calm Calm - N/A   Clear
8:54 AM 39.0 °F 36.8 °F 30.0 °F 70% 30.35 in 10.0 mi SSE 3.5 mph - N/A   Clear
10:54 AM 50.0 °F - 28.0 °F 43% 30.34 in 10.0 mi South 9.2 mph - N/A   Scattered Clouds
11:54 AM 50.0 °F - 27.0 °F 41% 30.35 in 10.0 mi SW 15.0 mph 21.9 mph N/A   Overcast
1:54 PM 45.0 °F 41.2 °F 36.0 °F 71% 30.31 in 10.0 mi SSE 6.9 mph - 0.00 in Rain Light Rain
2:54 PM 46.9 °F - 35.1 °F 63% 30.29 in 10.0 mi ESE 5.8 mph - 0.00 in   Overcast
3:54 PM 53.1 °F - 36.0 °F 52% 30.25 in 10.0 mi ESE 9.2 mph - N/A   Partly Cloudy
4:54 PM 57.0 °F - 35.1 °F 44% 30.20 in 10.0 mi East 6.9 mph - N/A   Clear
5:54 PM 62.1 °F - 32.0 °F 32% 30.18 in 10.0 mi South 11.5 mph 17.3 mph 0.01 in   Partly Cloudy
6:54 PM 63.0 °F - 30.0 °F 29% 30.17 in 10.0 mi SSW 9.2 mph - N/A   Partly Cloudy
7:54 PM 55.0 °F - 32.0 °F 42% 30.18 in 10.0 mi WNW 5.8 mph - N/A   Mostly Cloudy
8:54 PM 52.0 °F - 34.0 °F 50% 30.19 in 10.0 mi NE 3.5 mph - N/A   Overcast
9:54 PM 48.9 °F - 37.0 °F 64% 30.19 in 10.0 mi North 5.8 mph - 0.00 in   Overcast
10:54 PM 46.9 °F - 37.0 °F 68% 30.20 in 10.0 mi NE 4.6 mph - 0.00 in   Overcast
11:54 PM 44.1 °F 40.1 °F 36.0 °F 73% 30.21 in 10.0 mi NNE 6.9 mph - 0.00 in Rain Light Rain